SM7SJR-13 Weather Reports


Display with metric or nautical units.
time (UTC)temp
F
wind
direction
speed
MPH
gust
MPH
rain 1hr
in
rain 24hr
in
rain mn
in
humidity
%
barometer
mb
20260831051504 57 202 3.0 9.0 0.00 0.23 0.01 97 1006.3
20260831044504 56 199 5.0 7.0 0.00 0.23 0.01 97 1006.3
20260831034503 56 209 3.0 7.0 0.01 0.23 0.01 97 1006.0
20260831031504 56 212 5.0 7.0 0.01 0.23 0.01 97 1005.9
20260831024504 56 224 4.0 8.0 0.00 0.22 0.00 97 1005.6
20260831023004 56 226 4.0 9.0 0.00 0.22 0.00 96 1005.5
20260831021503 57 226 5.0 8.0 0.00 0.22 0.00 96 1005.5
20260831020004 57 219 4.0 8.0 0.00 0.22 0.00 97 1005.3
20260831014504 57 233 6.0 7.0 0.00 0.22 0.00 96 1005.0
20260831013003 57 241 6.0 8.0 0.00 0.22 0.00 96 1005.1
20260831011504 58 235 4.0 8.0 0.00 0.22 0.00 96 1005.1
20260831010003 58 232 6.0 8.0 0.00 0.22 0.00 96 1005.0
20260831004503 58 236 5.0 8.0 0.00 0.22 0.00 96 1004.8
20260831003004 59 238 6.0 10.0 0.00 0.22 0.00 96 1004.7
20260831001503 59 227 4.0 8.0 0.00 0.22 0.00 96 1004.6
20260831000004 59 222 2.0 12.0 0.00 0.22 0.00 95 1004.5
20260830234504 60 236 8.0 12.0 0.00 0.22 0.00 95 1004.5
20260830233004 60 248 7.0 12.0 0.00 0.22 0.00 95 1004.4
20260830231503 61 246 6.0 14.0 0.00 0.22 0.00 96 1004.1
20260830230004 61 232 9.0 17.0 0.00 0.22 0.00 96 1004.0
20260830224503 62 242 7.0 13.0 0.00 0.22 0.00 96 1003.6
20260830223004 62 241 6.0 14.0 0.00 0.22 0.00 96 1003.0
20260830221504 63 214 7.0 12.0 0.00 0.22 0.00 97 1003.0
20260830220004 63 232 7.0 12.0 0.00 0.22 0.00 97 1003.0
20260830214504 63 232 6.0 12.0 0.00 0.22 0.22 97 1002.4
20260830213004 63 219 5.0 9.0 0.00 0.22 0.22 97 1002.4
20260830210003 63 203 5.0 10.0 0.00 0.22 0.22 97 1002.3
20260830204504 63 199 6.0 9.0 0.00 0.22 0.22 97 1002.3
20260830201503 63 206 5.0 9.0 0.00 0.22 0.22 97 1002.1
20260830194503 64 194 5.0 12.0 0.00 0.22 0.22 96 1002.0
20260830191504 64 187 3.0 12.0 0.01 0.22 0.22 96 1002.0
20260830190003 64 185 2.0 10.0 0.01 0.22 0.22 96 1002.1
20260830183004 64 199 5.0 15.0 0.01 0.22 0.22 96 1002.0
20260830181504 64 199 6.0 10.0 0.00 0.21 0.21 96 1002.0
20260830180004 64 181 2.0 10.0 0.00 0.21 0.21 96 1002.1
20260830174503 64 191 3.0 12.0 0.00 0.21 0.21 96 1002.1
20260830173004 64 171 3.0 13.0 0.00 0.21 0.21 96 1002.1
20260830171504 64 174 4.0 12.0 0.00 0.21 0.21 96 1002.1
20260830170005 64 184 4.0 8.0 0.01 0.21 0.21 96 1002.1
20260830164503 65 169 4.0 8.0 0.01 0.21 0.21 96 1002.1
20260830161505 65 178 3.0 12.0 0.06 0.21 0.21 95 1002.1
20260830154503 65 223 6.0 13.0 0.05 0.20 0.20 95 1002.4
20260830153004 65 157 6.0 13.0 0.05 0.16 0.16 94 1002.4
20260830151504 66 158 5.0 10.0 0.14 0.15 0.15 94 1002.4
20260830150004 66 188 5.0 10.0 0.15 0.15 0.15 94 1002.7
20260830144504 66 168 3.0 17.0 0.15 0.15 0.15 94 1002.7
20260830143005 67 248 2.0 12.0 0.11 0.11 0.11 92 1002.9
20260830141503 68 182 8.0 17.0 0.01 0.01 0.01 87 1002.9
20260830140004 69 159 10.0 15.0 0.00 0.00 0.00 85 1003.0
20260830133003 69 139 6.0 12.0 0.00 0.00 0.00 86 1003.1
20260830131503 68 185 6.0 15.0 0.00 0.00 0.00 85 1003.1
20260830130003 69 198 5.0 9.0 0.00 0.00 0.00 84 1003.1
20260830123004 70 175 9.0 17.0 0.00 0.00 0.00 79 1003.2
20260830121503 71 175 5.0 15.0 0.00 0.00 0.00 78 1003.1
20260830120004 72 190 7.0 14.0 0.00 0.01 0.00 78 1003.2
20260830114504 71 197 5.0 14.0 0.00 0.01 0.00 82 1003.1
20260830113004 70 173 2.0 14.0 0.00 0.01 0.00 83 1003.3
20260830111504 70 164 6.0 15.0 0.00 0.01 0.00 81 1003.3
20260830110004 72 176 5.0 13.0 0.00 0.01 0.00 78 1003.5
20260830104504 73 169 6.0 16.0 0.00 0.01 0.00 79 1003.7
20260830103004 71 165 9.0 13.0 0.00 0.01 0.00 84 1003.9
20260830094503 65 147 7.0 13.0 0.00 0.01 0.00 91 1004.1
20260830091504 64 146 3.0 7.0 0.00 0.01 0.00 97 1004.5
20260830090004 64 103 4.0 7.0 0.00 0.01 0.00 97 1004.6
20260830084503 64 133 1.0 3.0 0.00 0.01 0.00 97 1004.9
20260830083004 63 149 2.0 6.0 0.00 0.01 0.00 97 1004.9
20260830081504 62 153 3.0 5.0 0.00 0.01 0.00 97 1005.0
20260830074504 62 167 0.0 5.0 0.00 0.01 0.00 97 1005.3
20260830073004 61 190 0.0 6.0 0.00 0.01 0.00 97 1005.5
20260830071504 61 205 3.0 7.0 0.00 0.01 0.00 97 1005.6
20260830070004 61 182 3.0 9.0 0.00 0.01 0.00 97 1005.6
20260830064503 60 173 3.0 7.0 0.00 0.01 0.00 97 1005.5
20260830063003 60 175 3.0 7.0 0.00 0.01 0.00 98 1005.6
20260830061503 60 183 4.0 8.0 0.00 0.01 0.00 97 1005.6
20260830060004 60 159 4.0 6.0 0.00 0.01 0.00 98 1005.6
20260830054504 59 178 3.0 6.0 0.00 0.01 0.00 97 1005.7
20260830053004 59 181 3.0 7.0 0.00 0.01 0.00 97 1005.7